Station KGNA - Bay of Grand Marais, MN Image indicating link to RSS feed of recent meteorological observations for station KGNA


Conditions at KGNA as of
(10:56 pm CDT on 07/13/2024)
0356 GMT on 07/14/2024:
     

Click on the graph icon in the table below to see a time series plot of the last five days of that observation.

5-day plot - Wind Direction Wind Direction (WDIR): E ( 80 deg true )
5-day plot - Wind Speed Wind Speed (WSPD): 4.1 kts
5-day plot - Atmospheric Pressure Atmospheric Pressure (PRES):29.87 in
5-day plot - Air Temperature Air Temperature (ATMP): 71.1 °F
5-day plot - Dew Point Dew Point (DEWP): 64.9 °F
5-day plot -  Wind Speed, Wind Gust and Atmospheric Pressure Combined plot of Wind Speed, Gust, and Air Pressure
Previous observations
TIME
(CDT)
5-day plot - Wind Direction
WDIR
 
5-day plot - Wind Speed
WSPD
kts
5-day plot - Wind Gust
GST
kts
5-day plot - Wave Height
WVHT
ft
5-day plot - Dominant Wave Period
DPD
sec
5-day plot - Average Wave Period
APD
sec
5-day plot - Mean Wave Direction
MWD
 
5-day plot - Atmospheric Pressure
PRES
in
5-day plot - Pressure Tendency
PTDY
in
5-day plot - Air Temperature
ATMP
°F
5-day plot - Water Temperature
WTMP
°F
5-day plot - Dew Point
DEWP
°F
5-day plot - Salinity
SAL
psu
5-day plot - Visibility
VIS
nmi
5-day plot - Tide (above MLLW)
TIDE
ft
2024-07-13 09:56 pm NE 2.9-----29.87- 72.0- 66.9---
2024-07-13 08:56 pm E 9.9-----29.86- 72.0- 68.0---
2024-07-13 07:56 pm- 0.0-----29.87- 73.0- 68.0---
2024-07-13 06:56 pmSSW 2.9-----29.86- 73.0- 68.0---
2024-07-13 05:56 pm E 4.1-----29.85- 75.0- 66.9---
2024-07-13 04:56 pm- 0.0-----29.88- 73.9- 68.0---
2024-07-13 03:56 pm S 4.1-----29.90- 75.9- 70.0---
2024-07-13 02:56 pm- 0.0-----29.91- 75.0- 68.0---
2024-07-13 01:56 pm- 0.0-----29.94- 75.0- 68.0---
2024-07-13 12:56 pm SE 2.9-----29.95- 75.9- 68.0---
2024-07-13 11:56 am- 0.0-----29.97- 72.0- 66.0---
2024-07-13 10:56 am- 0.0-----29.97- 72.0- 66.0---
2024-07-13 09:56 am- 0.0-----29.98- 71.1- 66.9---
2024-07-13 08:56 am- 0.0-----30.00- 71.1- 66.0---
2024-07-13 07:56 am- 0.0-----30.01- 71.1- 64.0---
2024-07-13 06:56 am- 0.0-----30.00- 68.0- 63.0---
2024-07-13 05:56 am- 0.0-----30.00- 64.0- 61.0---
2024-07-13 04:56 am- 0.0-----29.99- 63.0- 60.1---
2024-07-13 03:56 am- 0.0-----29.99- 63.0- 61.0---
2024-07-13 02:56 am- 0.0-----29.98- 64.0- 61.0---
2024-07-13 01:56 am- 0.0-----29.99- 64.9- 62.1---
2024-07-13 12:56 am- 0.0-----29.99- 66.0- 62.1---
2024-07-12 11:56 pm- 0.0-----30.00- 66.0- 62.1---
2024-07-12 10:56 pm- 0.0-----30.00- 66.9- 63.0---